When you browse on this site, cookies collect data to enhance your experience and personalize the content and advertising you see.
Visit our Privacy Policy to learn more. By continuing to use the site, you agree to this use of cookies and data.

Météo par heure à Stupishino

Ce jour, 9 Juillet, Jeudi

Heure Température Précipitation Vent Pression Humidité
00:00 +14°C° 0 mm 5 m/s 741 mmHg 89%
01:00 +14°C° 0 mm 5 m/s 741 mmHg 89%
02:00 +14°C° 0 mm 4 m/s 741 mmHg 89%
03:00 +13°C° 0 mm 4 m/s 742 mmHg 90%
04:00 +13°C° 0 mm 4 m/s 742 mmHg 91%
05:00 +13°C° 0 mm 5 m/s 742 mmHg 92%
06:00 +14°C° 0 mm 4 m/s 743 mmHg 87%
07:00 +15°C° 0 mm 4 m/s 743 mmHg 83%
08:00 +17°C° 0 mm 4 m/s 743 mmHg 79%
09:00 +18°C° 0 mm 4 m/s 744 mmHg 76%
10:00 +19°C° 0 mm 4 m/s 744 mmHg 73%
11:00 +20°C° 0 mm 4 m/s 744 mmHg 69%
12:00 +20°C° 0.1 mm 4 m/s 745 mmHg 69%
13:00 +21°C° 0.1 mm 4 m/s 745 mmHg 68%
14:00 +21°C° 0.1 mm 4 m/s 745 mmHg 67%
15:00 +20°C° 0.3 mm 4 m/s 745 mmHg 70%
16:00 +20°C° 0.3 mm 4 m/s 745 mmHg 74%
17:00 +19°C° 0.3 mm 4 m/s 745 mmHg 77%
18:00 +18°C° 0 mm 3 m/s 745 mmHg 81%
19:00 +17°C° 0 mm 3 m/s 745 mmHg 84%
20:00 +16°C° 0 mm 3 m/s 746 mmHg 88%
21:00 +14°C° 0 mm 3 m/s 746 mmHg 89%
22:00 +13°C° 0 mm 3 m/s 746 mmHg 91%
23:00 +12°C° 0 mm 3 m/s 747 mmHg 92%

Demain, 10 Juillet, Vendredi

Heure Température Précipitation Vent Pression Humidité
00:00 +13°C° 0 mm 2 m/s 747 mmHg 93%
01:00 +12°C° 0 mm 2 m/s 747 mmHg 93%
02:00 +12°C° 0 mm 2 m/s 748 mmHg 93%
03:00 +12°C° 0 mm 2 m/s 748 mmHg 92%
04:00 +12°C° 0 mm 2 m/s 748 mmHg 91%
05:00 +13°C° 0 mm 1 m/s 748 mmHg 90%
06:00 +14°C° 0 mm 1 m/s 749 mmHg 84%
07:00 +16°C° 0 mm 1 m/s 749 mmHg 77%
08:00 +19°C° 0 mm 1 m/s 749 mmHg 71%
09:00 +20°C° 0 mm 1 m/s 749 mmHg 67%
10:00 +20°C° 0 mm 2 m/s 749 mmHg 64%
11:00 +21°C° 0 mm 2 m/s 749 mmHg 60%
12:00 +21°C° 0 mm 2 m/s 749 mmHg 58%
13:00 +23°C° 0 mm 2 m/s 749 mmHg 57%
14:00 +23°C° 0 mm 2 m/s 749 mmHg 56%
15:00 +23°C° 0 mm 2 m/s 749 mmHg 60%
16:00 +23°C° 0 mm 2 m/s 749 mmHg 64%
17:00 +23°C° 0 mm 2 m/s 749 mmHg 67%
18:00 +20°C° 0 mm 2 m/s 749 mmHg 71%
19:00 +19°C° 0 mm 2 m/s 749 mmHg 75%
20:00 +17°C° 0 mm 2 m/s 749 mmHg 79%
21:00 +17°C° 0 mm 2 m/s 749 mmHg 80%
22:00 +16°C° 0 mm 2 m/s 750 mmHg 81%
23:00 +16°C° 0 mm 2 m/s 750 mmHg 82%

Après-demain, 11 Juillet, Samedi

Heure Température Précipitation Vent Pression Humidité
00:00 +14°C° 0 mm 3 m/s 750 mmHg 82%
01:00 +14°C° 0 mm 3 m/s 750 mmHg 83%
02:00 +14°C° 0 mm 3 m/s 750 mmHg 83%
03:00 +14°C° 0 mm 3 m/s 750 mmHg 83%
04:00 +14°C° 0 mm 3 m/s 750 mmHg 84%
05:00 +14°C° 0 mm 3 m/s 750 mmHg 85%
06:00 +17°C° 0 mm 3 m/s 750 mmHg 81%
07:00 +19°C° 0 mm 3 m/s 750 mmHg 78%
08:00 +21°C° 0 mm 4 m/s 750 mmHg 75%
09:00 +22°C° 0 mm 4 m/s 750 mmHg 72%
10:00 +23°C° 0 mm 4 m/s 750 mmHg 70%
11:00 +25°C° 0 mm 4 m/s 750 mmHg 68%
12:00 +26°C° 0 mm 4 m/s 750 mmHg 67%
13:00 +26°C° 0 mm 4 m/s 750 mmHg 67%
14:00 +27°C° 0 mm 4 m/s 749 mmHg 66%
15:00 +26°C° 0 mm 4 m/s 749 mmHg 68%
16:00 +26°C° 0 mm 3 m/s 749 mmHg 71%
17:00 +26°C° 0 mm 3 m/s 748 mmHg 73%
18:00 +24°C° 0 mm 2 m/s 749 mmHg 76%
19:00 +23°C° 0 mm 2 m/s 749 mmHg 79%
20:00 +20°C° 0 mm 2 m/s 749 mmHg 82%
21:00 +20°C° 0 mm 2 m/s 749 mmHg 82%
22:00 +19°C° 0 mm 2 m/s 749 mmHg 83%
23:00 +18°C° 0 mm 2 m/s 749 mmHg 84%

12 Juillet, Dimanche

Heure Température Précipitation Vent Pression Humidité
00:00 +18°C° 0 mm 2 m/s 748 mmHg 84%
01:00 +17°C° 0 mm 2 m/s 748 mmHg 84%
02:00 +17°C° 0 mm 2 m/s 748 mmHg 84%
03:00 +17°C° 0 mm 2 m/s 748 mmHg 84%
04:00 +17°C° 0 mm 2 m/s 748 mmHg 84%
05:00 +17°C° 0 mm 2 m/s 747 mmHg 84%
06:00 +19°C° 0 mm 2 m/s 747 mmHg 79%
07:00 +21°C° 0 mm 2 m/s 747 mmHg 74%
08:00 +23°C° 0 mm 2 m/s 747 mmHg 70%
09:00 +24°C° 0 mm 2 m/s 747 mmHg 66%
10:00 +25°C° 0 mm 2 m/s 747 mmHg 63%
11:00 +26°C° 0 mm 2 m/s 747 mmHg 60%
12:00 +27°C° 0 mm 2 m/s 747 mmHg 59%
13:00 +27°C° 0 mm 2 m/s 746 mmHg 58%
14:00 +27°C° 0 mm 2 m/s 746 mmHg 57%
15:00 +27°C° 0 mm 2 m/s 745 mmHg 59%
16:00 +27°C° 0 mm 2 m/s 745 mmHg 61%
17:00 +27°C° 0 mm 1 m/s 745 mmHg 64%
18:00 +25°C° 0 mm 1 m/s 745 mmHg 67%
19:00 +23°C° 0 mm 1 m/s 744 mmHg 70%
20:00 +21°C° 0 mm 1 m/s 744 mmHg 74%
21:00 +21°C° 0 mm 1 m/s 744 mmHg 74%
22:00 +20°C° 0 mm 1 m/s 744 mmHg 74%
23:00 +19°C° 0 mm 1 m/s 744 mmHg 75%

13 Juillet, Lundi

Heure Température Précipitation Vent Pression Humidité
00:00 +19°C° 0 mm 1 m/s 743 mmHg 77%
01:00 +18°C° 0 mm 1 m/s 743 mmHg 78%
02:00 +18°C° 0 mm 1 m/s 743 mmHg 80%
03:00 +18°C° 0 mm 1 m/s 742 mmHg 81%
04:00 +17°C° 0 mm 2 m/s 742 mmHg 82%
05:00 +18°C° 0 mm 2 m/s 742 mmHg 83%
06:00 +19°C° 0 mm 2 m/s 742 mmHg 80%
07:00 +21°C° 0 mm 2 m/s 742 mmHg 77%
08:00 +24°C° 0 mm 2 m/s 742 mmHg 73%
09:00 +25°C° 0 mm 3 m/s 741 mmHg 72%
10:00 +26°C° 0 mm 3 m/s 741 mmHg 70%
11:00 +27°C° 0 mm 3 m/s 741 mmHg 69%
12:00 +26°C° 3.1 mm 3 m/s 741 mmHg 76%
13:00 +25°C° 3.1 mm 2 m/s 740 mmHg 83%
14:00 +24°C° 3.1 mm 2 m/s 740 mmHg 90%
15:00 +23°C° 1.5 mm 2 m/s 739 mmHg 90%
16:00 +22°C° 1.5 mm 3 m/s 739 mmHg 90%
17:00 +22°C° 1.5 mm 3 m/s 738 mmHg 89%
18:00 +21°C° 0 mm 3 m/s 738 mmHg 91%
19:00 +21°C° 0 mm 3 m/s 738 mmHg 92%
20:00 +20°C° 0 mm 3 m/s 738 mmHg 94%
21:00 +20°C° 0.2 mm 3 m/s 738 mmHg 94%
22:00 +19°C° 0.2 mm 3 m/s 738 mmHg 94%
23:00 +19°C° 0.2 mm 2 m/s 737 mmHg 94%

14 Juillet, Mardi

Heure Température Précipitation Vent Pression Humidité
00:00 +19°C° 1 mm 2 m/s 737 mmHg 95%
01:00 +20°C° 1 mm 1 m/s 737 mmHg 96%
02:00 +20°C° 1 mm 1 m/s 736 mmHg 97%
03:00 +20°C° 0 mm 1 m/s 736 mmHg 96%
04:00 +19°C° 0 mm 2 m/s 736 mmHg 96%
05:00 +19°C° 0 mm 2 m/s 735 mmHg 95%
06:00 +20°C° 0.2 mm 2 m/s 735 mmHg 95%
07:00 +20°C° 0.2 mm 3 m/s 736 mmHg 94%
08:00 +20°C° 0.2 mm 3 m/s 736 mmHg 93%
09:00 +21°C° 0.2 mm 3 m/s 735 mmHg 93%
10:00 +21°C° 0.2 mm 3 m/s 735 mmHg 93%
11:00 +21°C° 0.2 mm 3 m/s 735 mmHg 92%
12:00 +22°C° 0.3 mm 3 m/s 735 mmHg 89%
13:00 +22°C° 0.3 mm 3 m/s 735 mmHg 85%
14:00 +24°C° 0.3 mm 3 m/s 735 mmHg 81%
15:00 +23°C° 0.4 mm 4 m/s 735 mmHg 83%
16:00 +22°C° 0.4 mm 5 m/s 735 mmHg 85%
17:00 +21°C° 0.4 mm 5 m/s 735 mmHg 86%
18:00 +20°C° 0 mm 5 m/s 735 mmHg 87%
19:00 +19°C° 0 mm 5 m/s 736 mmHg 88%
20:00 +17°C° 0 mm 4 m/s 736 mmHg 90%
21:00 +15°C° 0 mm 4 m/s 736 mmHg 91%
22:00 +15°C° 0 mm 5 m/s 736 mmHg 91%
23:00 +14°C° 0 mm 5 m/s 736 mmHg 92%
Voir plus